Regional Weather Roundup
Issued by NWS Goodland, KS

Home | Current Version | Previous Version | Text Only | Print | Product List | Glossary On
Versions: 1 2 3 4 5 6 7 8 9 10 11 12 13 14 15 16 17 18 19 20 21 22 23 24 25 26 27 28 29 30 31 32 33 34 35 36 37 38 39 40 41 42 43 44 45 46 47 48 49 50
000
ASUS43 KGLD 311759
RWRGLD

GOODLAND FORECAST AREA HOURLY WEATHER ROUNDUP
NATIONAL WEATHER SERVICE GOODLAND KS
1200 PM MDT TUE MAY 31 2016

...OFFICIAL OBSERVATIONS...

CITY           SKY/WX    TMP DP  RH WIND       PRES   REMARKS
GOODLAND KS    MOSUNNY   65  49  56 NE12G18   30.08F
HILL CITY KS   MOSUNNY   70  52  52 N15G23    30.04S
IMPERIAL NEB   MOSUNNY   63  47  55 NE3       30.09F
MCCOOK NEB     SUNNY     68  46  45 N8        30.06S
AKRON CO       MOSUNNY   61  42  49 E6        30.11F
BURLINGTON CO  MOSUNNY   66  45  46 E12       30.10F
LIMON CO       PTSUNNY   57  46  66 VRB5      30.14S
$$

...UNOFFICIAL OBSERVATIONS...

CITY           SKY/WX    TMP DP  RH WIND       PRES   REMARKS
GOVE KS          N/A    N/A N/A N/A MISG        N/A
LENORA KS        N/A     68  32  26 MISG        N/A
SHARON SPRINGS   N/A     64  54  71 E7G14       N/A
TRIBUNE KS     CLOUDY    66  54  63 N8        30.09F
KIT CARSON CO    N/A     63  50  61 CALM        N/A
YUMA CO          N/A     61  45  54 CALM        N/A
$$




USA.gov is the U.S. government's official web portal to all federal, state and local government web resources and services.